Skip Navigation Links
NOAA logo - Click to go to the NOAA homepage
NOAA's National Weather Service
Alaska Aviation Weather Unit
  NWS logo - Click to go to the NWS homepage
Left Navbar Graphic     03 AKDT = 11 GMT

   
NOAA is celebrating 200 years of science, service, and stewardship. Visit the NOAA 200th celebration Web site to learn more.
USA.gov is the U.S. Government's official Web portal to all Federal, state and local government Web resources and services.
Facebook
NWS on Facebook

Important Change Regarding the AAWU Web Presence

 

Over the last several months, the AAWU has been working to navigate its webpages to a nationally supported server. Security, as well as other needs, have necessitated the change.  We have been given an extension for the site changeover while we diligently work at addressing feedback received. As of July 14, 2017, aawu.arh.noaa.gov will be discontinued. The new AAWU web address is weather.gov/aawu. It is now live and will run in-parallel with the old site until it is discontinued on July 14, 2017. Please continue to send any feedback or questions regarding the new webpages to nws.ar.aawu.webauthors@noaa.gov.  Thank you for your patience during this time of transition.
AAWU Home :: Display TAF Add Bookmark
METAR PAZK 230556Z AUTO 00000KT 10SM SCT046 BKN075 10/07 A2972 RMK AO2
     SLP082 60000 T01000067 10150 20094 53009=

METAR PAZK 230656Z AUTO 24003KT 10SM BKN050 OVC060 09/07 A2972 RMK
 AO2 SLP083 T00890072=

METAR PAZK 230756Z AUTO 23006KT 10SM SCT050 OVC070 09/08 A2972 RMK AO2
     RAB15E43 SLP082 P0000 T00890078=

SPECI PAZK 230823Z AUTO 23006KT 10SM SCT002 OVC075 08/08 A2973 RMK
     AO2=

SPECI PAZK 230834Z AUTO 23005KT 10SM BKN002 OVC075 08/08 A2972 RMK
 AO2=

METAR PAZK 230856Z AUTO 22008KT 10SM OVC002 08/08 A2972 RMK AO2
 SLP085 60000 T00830078 401500067 51003=

SPECI PAZK 230952Z AUTO 24007KT 10SM FEW002 SCT050 OVC070 08/07
 A2973 RMK AO2=

PAZK 230956Z AUTO 22007KT 10SM SCT002 SCT050 OVC070 08/07 A2973
     RMK AO2 SLP086 T00780072=

METAR PAZK 231056Z AUTO 22007KT 10SM BKN070 OVC100 07/07 A2973 RMK AO2
     SLP086 T00720067=


NOAA's National Weather Service
Alaska Aviation Weather Unit
6930 Sand Lake Road
Anchorage, AK 99502-1845
Disclaimer
Credits
Glossary
Privacy Policy
About Us
Career Opportunities
Contact AAWU Internet Services Site last modified: April, 17th 2012